Theta_e
340 342 343 343 341 342 342 338 333 330 332 335 335 333 332 333 333 334 336 335 335 334 329 327 329 329 331 332 332 332 329 328 328 329 330 331 332 334 335 335 335 335 334 333 333 333 333 333 333 333 332 330 332 333 331 330 330 328 328 329 331 331 329 328 329 330 329 330 329 330 329 330 330 331 330 329 329 328 328 327 327 327 326 327 327
340 343 342 340 339 341 337 331 330 330 332 333 333 332 331 332 332 333 332 333 334 333 330 328 328 330 331 331 330 329 328 329 327 327 330 332 333 334 334 334 335 335 335 334 334 334 333 333 333 333 332 331 332 333 331 329 329 329 327 328 329 330 329 329 329 329 330 330 331 331 331 329 329 330 329 329 328 327 326 325 326 327 326 326 325
339 342 341 339 339 337 333 330 331 331 332 332 331 330 330 332 333 333 332 332 332 331 331 330 329 330 331 330 330 329 328 328 327 327 329 331 332 333 334 334 334 333 334 334 334 334 332 332 332 333 333 332 332 332 331 330 330 329 328 327 329 329 328 329 329 329 330 330 330 332 332 331 331 330 328 328 328 327 325 325 325 325 325 325 325
338 338 340 339 335 334 333 332 331 331 331 330 331 331 332 333 335 336 334 334 333 332 332 333 332 332 331 329 329 327 325 326 328 328 329 330 330 332 332 332 332 332 333 333 333 333 332 332 331 332 333 332 332 331 331 331 330 329 328 327 329 330 328 328 329 328 329 330 331 331 331 331 332 331 328 327 326 326 325 324 323 324 324 324 325
341 338 338 336 336 336 334 331 331 331 330 331 331 332 334 334 335 335 334 334 334 334 334 334 334 331 328 326 326 325 326 327 328 327 325 327 329 330 330 330 330 330 331 332 333 333 333 332 332 332 332 332 330 329 332 332 330 328 329 329 329 328 327 328 328 327 328 329 330 331 331 331 332 329 328 328 325 324 324 323 322 322 323 323 324
338 334 335 336 337 336 332 331 332 331 331 331 332 333 334 333 332 330 330 333 333 332 333 334 333 329 327 327 327 328 329 329 328 326 324 326 327 328 329 329 328 328 329 331 331 332 332 331 330 331 331 331 330 328 330 331 330 329 330 330 329 328 326 326 327 327 328 328 329 330 331 331 330 328 330 329 325 322 322 322 322 321 321 322 322
335 332 333 334 335 335 334 332 332 332 331 332 333 334 333 332 329 326 329 333 332 330 332 332 330 329 329 329 330 330 328 327 327 327 326 326 326 326 325 326 327 326 327 328 329 329 330 329 329 329 328 328 329 328 328 329 329 329 330 329 328 327 326 326 327 328 328 328 329 330 330 329 328 328 330 329 326 324 322 320 320 320 320 320 320
333 334 335 334 334 335 335 334 333 332 332 331 333 334 331 330 329 328 331 333 331 330 332 330 329 330 330 330 329 329 327 326 326 325 325 325 324 324 323 324 325 325 326 326 326 326 326 327 326 326 327 326 326 326 328 328 328 329 329 329 328 327 327 328 328 328 329 329 329 330 330 328 328 328 328 327 327 325 321 319 319 318 319 319 319
333 335 335 333 333 334 334 335 333 333 333 332 333 333 331 331 331 330 331 330 329 330 330 329 330 330 330 329 327 326 325 324 323 324 324 324 324 323 322 323 325 325 326 326 325 325 324 325 325 325 326 326 325 326 326 327 328 329 329 328 329 328 327 327 328 328 328 328 328 328 329 329 328 327 325 324 326 325 322 320 318 318 318 317 317
333 334 334 333 332 332 334 335 334 334 334 333 334 334 334 335 334 331 329 329 331 331 330 329 330 331 329 326 325 325 324 323 323 323 323 323 322 322 322 322 324 325 325 325 325 326 325 325 326 326 326 326 325 326 327 328 329 330 330 330 330 329 328 328 326 327 328 327 328 328 328 329 328 327 324 323 325 324 320 319 318 318 318 317 316
332 333 333 333 332 331 334 335 334 335 334 334 335 335 336 337 336 334 332 333 334 332 331 330 330 330 327 325 325 325 325 323 322 323 323 323 322 322 323 323 324 324 325 325 325 325 326 326 326 325 326 325 325 325 327 329 330 331 331 331 331 330 330 329 328 328 327 326 327 326 326 327 326 326 324 323 324 322 320 320 317 316 317 316 316
332 332 332 333 331 331 333 334 334 335 335 335 335 335 336 336 335 336 336 337 336 333 331 331 330 329 326 326 326 325 325 323 322 323 323 323 322 322 322 322 324 324 324 325 324 325 326 326 325 325 325 325 325 325 326 327 328 330 331 331 330 329 329 330 329 328 327 325 325 325 324 324 323 323 322 322 323 320 320 319 316 314 315 314 313
332 332 331 332 332 332 334 334 333 334 335 335 334 334 336 334 333 335 337 337 337 335 333 331 330 328 327 327 326 325 325 324 322 322 322 322 322 322 321 321 322 324 324 324 323 324 325 325 325 325 325 325 325 325 325 325 327 328 329 329 329 329 329 328 327 327 326 324 323 322 322 320 320 320 320 321 321 318 317 317 315 314 314 313 312
332 332 331 332 334 333 334 334 333 333 334 334 334 334 334 334 333 334 336 336 336 336 334 333 330 328 328 327 325 325 327 325 323 322 322 321 321 321 321 321 323 324 324 323 323 324 324 325 324 324 324 325 324 324 324 325 326 326 327 326 326 327 326 325 324 323 321 319 317 316 315 315 315 316 316 318 318 317 317 316 315 315 314 313 311
330 332 330 331 334 334 333 333 333 333 333 333 333 334 334 334 333 333 334 334 335 335 334 334 332 329 328 328 327 327 328 327 324 322 322 321 320 321 322 323 324 324 323 323 323 324 323 324 324 323 324 324 324 323 323 324 324 324 323 323 323 323 322 321 320 318 316 314 313 313 312 312 313 314 314 316 316 317 317 315 314 317 319 316 313
330 330 329 331 335 334 332 333 333 333 333 333 334 334 334 334 334 333 332 333 333 333 333 334 333 332 331 330 330 329 328 327 324 322 322 321 321 321 322 323 323 323 322 322 322 323 322 322 322 323 323 323 323 323 322 323 322 321 320 319 319 319 319 318 317 315 314 314 314 313 313 313 313 314 314 315 316 316 316 315 313 316 320 319 316
331 330 330 332 334 334 333 332 332 333 333 333 333 333 333 333 334 332 331 331 331 331 333 333 333 332 332 331 330 329 328 325 322 322 322 321 321 322 323 323 322 321 321 320 321 320 319 319 320 321 322 322 322 321 321 320 319 318 318 317 317 316 316 316 315 315 314 314 314 315 315 315 314 314 314 315 316 315 315 316 315 315 318 320 320
331 330 330 331 332 332 332 331 330 331 331 332 332 332 332 332 333 331 330 330 331 331 332 331 331 331 332 332 331 329 327 324 322 322 322 322 323 323 323 322 321 320 320 320 321 319 318 317 318 319 320 320 319 318 317 317 316 317 316 315 315 314 314 315 315 316 316 317 317 317 317 316 315 315 314 314 315 315 315 316 317 316 317 319 319
330 329 329 329 329 329 330 329 329 329 330 332 332 332 333 332 332 331 329 330 330 330 331 330 330 331 332 332 330 329 327 324 323 323 323 324 324 323 322 322 320 319 318 319 319 317 316 315 316 316 317 317 316 315 315 315 314 314 314 314 314 314 314 315 317 317 317 318 317 317 317 316 316 316 316 316 315 316 316 315 317 317 317 318 316
329 328 328 328 328 328 327 327 329 329 329 332 333 332 333 332 331 330 329 329 328 328 329 330 331 331 331 331 329 329 328 324 322 322 321 321 322 322 322 321 320 318 316 316 316 316 314 313 313 314 315 315 314 314 313 313 313 312 312 313 313 314 314 316 318 318 317 317 317 316 317 316 316 317 316 317 317 316 316 316 317 316 316 317 316
329 328 328 328 328 329 328 328 330 331 330 332 333 332 331 330 331 330 328 328 328 328 328 330 331 330 330 331 330 329 328 323 321 319 318 318 318 321 321 320 318 317 316 315 314 314 313 312 312 313 313 313 313 313 313 312 312 312 312 313 313 314 314 315 316 317 316 316 316 316 316 316 315 315 315 316 315 315 316 315 315 315 315 316 316
330 329 328 329 330 330 330 329 330 330 330 331 332 332 331 330 331 330 329 329 330 330 329 330 330 330 330 331 330 329 325 321 320 319 317 317 316 318 320 319 318 317 316 315 314 313 313 312 312 312 312 313 313 313 313 312 312 312 312 313 313 315 315 315 315 316 316 315 315 315 315 315 315 315 315 315 314 314 315 315 315 315 315 315 315
329 330 329 330 329 328 328 328 329 330 330 330 331 331 331 330 330 330 330 330 330 330 330 330 330 330 331 330 329 328 324 321 320 320 319 317 316 317 316 316 318 317 315 315 315 314 314 312 312 312 312 312 313 313 313 313 313 313 314 313 314 314 315 315 315 316 315 314 314 314 315 315 315 315 315 314 314 315 315 315 315 315 315 315 315
329 328 328 329 328 328 329 329 329 329 330 331 331 331 331 330 330 330 330 330 329 330 330 330 329 330 330 329 328 327 325 323 322 321 321 320 319 318 316 315 317 317 315 315 315 315 314 313 313 313 311 311 313 313 314 314 314 315 315 315 314 314 315 315 315 315 315 315 315 315 315 316 316 316 316 315 314 315 316 316 315 315 315 315 315
328 327 327 328 328 328 329 329 330 329 330 330 330 330 329 329 329 329 328 329 329 329 329 329 329 329 329 329 327 326 325 325 324 322 322 323 323 322 320 317 317 317 316 315 316 315 315 315 315 314 313 312 313 314 314 314 314 315 316 315 315 315 314 314 314 314 315 315 316 316 316 316 317 318 317 317 316 316 316 316 315 316 315 315 316
326 327 326 327 327 328 328 329 328 328 329 329 329 330 329 328 328 328 328 327 327 328 329 328 329 329 328 328 327 325 324 325 325 323 322 324 324 323 322 319 317 316 316 316 315 314 314 315 316 316 315 314 314 314 315 314 314 315 315 316 316 316 316 316 315 315 316 316 317 318 318 318 318 318 318 318 318 317 317 317 317 317 316 315 315
324 325 325 325 326 326 327 327 327 328 328 328 328 328 328 328 328 328 328 328 327 329 329 328 329 328 327 328 326 325 324 324 324 323 322 324 324 323 322 321 318 317 316 317 317 315 314 315 315 315 316 315 315 314 315 316 316 316 316 317 317 317 318 318 317 317 317 318 318 319 319 319 319 319 319 318 318 317 317 317 317 317 317 316 315
320 320 321 322 322 324 326 326 326 326 326 327 326 325 324 324 325 325 327 327 328 328 328 328 329 328 327 327 327 326 325 324 324 324 323 324 324 323 323 321 321 319 317 318 317 316 315 315 314 314 315 315 315 314 315 316 317 318 318 318 318 319 319 319 319 319 319 319 319 319 320 320 319 319 319 319 318 318 318 318 318 318 317 316 316
315 315 315 315 317 320 323 324 324 324 324 324 324 323 323 322 321 321 323 324 325 325 327 327 328 328 327 327 327 327 326 325 325 324 324 324 325 324 323 322 321 320 320 319 318 317 316 315 315 315 314 314 315 315 315 316 316 317 318 319 319 320 320 320 320 321 321 320 320 320 320 320 319 318 318 318 318 318 318 318 318 319 318 317 316
312 311 311 311 312 314 316 317 319 320 322 323 323 324 324 323 323 322 322 322 322 323 324 325 326 326 326 326 326 326 326 326 326 325 325 325 325 324 323 322 322 321 321 321 320 319 318 316 316 316 314 314 314 315 315 315 315 317 318 320 321 321 321 321 321 322 322 321 321 319 318 318 317 316 316 317 318 317 317 317 317 318 318 317 317
310 310 309 309 309 310 311 311 312 313 314 317 319 320 320 321 323 323 322 322 322 321 321 321 323 325 326 326 326 326 326 326 326 326 325 325 325 325 324 323 322 322 322 322 322 321 319 319 318 316 316 315 315 315 315 316 316 317 319 321 322 323 323 322 322 321 321 321 319 317 316 316 315 315 315 316 317 317 317 316 316 316 316 316 317
309 309 308 308 307 308 308 309 309 309 309 310 312 314 315 316 318 320 321 321 322 322 321 321 322 323 324 324 325 325 325 325 325 325 324 325 325 324 324 323 323 323 323 323 322 321 320 320 319 318 318 316 316 316 315 316 316 317 320 321 322 323 322 321 321 320 319 319 317 315 315 315 314 315 315 315 317 317 315 314 314 316 317 316 316
307 307 306 306 306 306 306 306 306 306 306 306 307 309 310 311 313 315 318 319 319 320 320 320 321 321 322 323 323 323 323 323 324 323 323 323 323 323 323 323 324 324 324 324 324 323 322 321 320 320 320 319 319 319 317 316 316 317 320 321 321 322 321 320 320 317 317 318 317 316 315 315 314 315 315 315 317 318 316 314 314 315 316 317 316
305 305 304 305 305 305 304 304 303 303 304 304 305 306 307 308 308 309 312 315 315 315 315 315 316 317 317 318 319 320 320 321 322 322 322 322 321 321 322 323 323 324 325 324 324 323 323 322 321 321 321 321 320 320 320 318 317 318 319 320 320 320 319 319 317 315 315 317 317 316 316 315 315 315 315 316 317 317 317 317 315 315 316 317 316
304 304 304 304 303 303 303 303 302 301 302 303 303 304 305 306 306 305 307 310 312 311 311 310 310 311 312 312 314 316 317 318 320 321 322 321 321 321 322 322 322 323 324 324 324 323 322 322 322 321 321 321 320 319 320 320 319 318 319 320 319 318 318 318 317 316 316 316 316 317 317 316 315 315 316 317 317 317 317 316 314 313 313 313 313
303 302 302 303 303 302 302 301 300 299 301 302 302 302 303 305 305 304 305 306 308 307 307 307 307 308 308 309 310 311 312 314 315 317 319 320 321 322 322 322 323 323 324 323 323 323 323 322 322 321 321 321 320 319 319 320 321 320 318 318 316 315 317 318 318 318 318 316 317 318 317 316 316 317 317 317 317 317 316 313 312 310 309 309 310
301 299 299 300 301 302 301 300 299 299 300 301 301 300 301 302 304 303 303 304 306 306 306 305 305 305 306 307 307 308 310 311 311 313 314 315 317 319 320 321 322 323 323 323 323 323 323 322 322 321 320 320 320 320 319 319 321 320 318 316 315 314 315 316 318 319 319 318 318 317 316 316 316 317 316 315 316 317 314 312 311 310 309 309 308
302 301 300 300 300 302 302 302 302 300 300 301 301 300 301 301 302 303 303 304 305 305 305 304 304 304 304 305 305 306 307 308 310 311 311 312 313 314 315 317 318 320 321 321 321 322 322 322 321 321 320 320 320 320 320 319 320 320 318 316 315 315 315 314 316 318 317 316 316 315 314 314 313 312 312 312 314 316 314 312 312 311 309 308 307
302 303 303 302 302 303 302 302 302 301 301 301 301 301 301 302 302 302 302 304 304 304 304 304 304 304 303 303 303 304 305 307 308 309 310 311 311 312 312 313 314 316 318 318 319 320 321 321 321 321 321 320 320 320 319 319 319 319 319 317 317 317 316 315 317 317 315 314 314 312 313 314 311 308 309 311 313 314 313 313 312 311 309 308 307
300 300 301 302 302 302 301 301 301 301 301 301 301 301 302 302 302 302 303 304 303 303 303 303 303 303 302 302 303 303 304 305 306 307 308 309 310 310 311 311 311 313 314 316 317 318 319 320 321 321 320 320 320 320 319 319 319 319 319 319 318 317 316 317 316 315 313 312 310 309 311 312 309 307 308 310 311 312 312 312 312 311 310 309 308
299 299 300 301 301 301 301 301 301 301 301 301 302 302 302 303 303 303 304 304 303 302 302 302 302 302 302 303 303 303 303 304 304 304 304 305 306 307 309 311 312 312 312 314 314 315 317 318 319 320 320 319 320 319 319 319 319 319 319 319 318 317 316 316 315 313 312 310 309 309 309 308 306 306 307 309 309 310 311 311 310 310 309 308 308
300 299 299 300 301 301 301 301 301 301 301 301 302 302 302 302 302 303 303 302 301 301 301 301 302 302 302 302 302 302 303 303 303 303 303 304 304 305 306 308 310 310 311 312 312 314 315 316 318 319 319 318 318 319 319 320 319 319 319 319 318 316 315 314 312 309 308 306 306 306 305 304 304 305 306 306 307 309 310 310 309 308 307 306 306
301 300 299 299 301 301 301 301 301 301 301 301 301 302 302 301 302 302 302 301 301 301 301 301 301 301 301 302 301 302 302 302 302 303 303 303 303 304 305 306 306 308 310 310 311 312 314 315 317 318 317 318 318 318 319 320 319 319 319 318 317 316 315 312 309 306 305 303 302 303 304 303 304 305 304 305 305 306 308 308 306 305 305 304 303
301 300 299 299 300 300 301 301 301 301 301 301 301 301 301 301 302 302 301 301 301 301 301 301 301 301 301 301 301 301 301 301 302 302 302 302 302 303 304 304 305 306 308 309 310 311 313 314 316 317 317 317 317 317 317 319 319 319 318 317 316 313 312 310 308 306 305 303 301 302 303 303 303 304 304 304 304 304 305 305 304 303 302 301 301
301 301 299 299 300 301 301 301 301 301 301 301 301 301 301 301 301 301 301 301 301 301 301 301 301 301 301 301 301 301 301 301 301 301 301 302 302 302 303 303 303 304 305 306 308 309 311 312 314 316 317 316 315 316 317 318 318 318 317 315 314 312 310 310 308 307 307 305 303 302 302 302 302 304 303 303 303 303 302 302 301 300 299 299 300
301 301 299 299 301 301 301 301 301 301 301 301 300 301 301 301 300 300 300 300 300 300 300 300 300 300 300 300 300 300 301 301 301 301 301 301 301 301 302 302 302 303 303 304 305 307 309 311 312 313 314 315 315 316 316 317 318 317 316 314 313 310 310 310 308 306 306 307 305 303 303 302 302 303 303 302 302 301 299 298 297 297 298 300 300
301 300 299 300 301 301 301 301 301 301 300 300 300 300 300 300 300 300 300 300 300 300 300 300 300 300 300 300 300 300 300 300 300 300 300 300 300 301 301 301 302 302 302 303 303 304 306 307 308 310 313 314 314 314 313 313 314 315 315 314 312 310 309 310 309 308 307 306 304 303 302 302 301 301 301 300 298 297 296 296 297 298 299 299 299
300 300 299 300 300 300 300 300 300 300 300 300 300 300 300 300 300 300 300 300 300 300 300 299 299 299 299 299 300 300 299 299 300 300 300 300 300 300 300 301 301 302 303 303 303 304 305 306 308 310 312 313 313 313 312 311 312 313 313 312 311 310 309 309 309 308 306 304 302 301 300 300 300 300 298 296 295 296 297 298 299 299 299 298 298
300 299 299 300 300 300 300 300 300 300 300 300 300 300 300 300 300 300 300 299 299 299 299 299 299 299 299 299 299 299 299 299 299 299 299 299 299 300 300 300 300 300 300 301 301 302 304 307 309 310 311 312 312 312 311 311 312 311 308 306 306 307 308 308 309 307 304 300 299 300 299 299 299 299 297 295 296 297 298 299 299 299 298 298 297
299 299 299 299 299 299 300 300 300 300 299 299 300 300 300 299 299 299 299 299 299 299 298 298 298 298 298 298 298 298 298 298 298 298 299 299 299 299 299 298 298 299 299 299 300 300 301 304 307 307 307 308 309 310 310 310 311 310 308 305 305 304 305 306 307 305 302 299 298 298 298 298 298 298 297 297 299 299 299 298 298 298 297 297 296
298 299 299 299 299 299 299 300 300 300 299 299 300 299 299 299 299 299 299 298 298 298 298 298 298 298 297 297 297 297 297 297 297 298 298 298 298 298 298 298 298 298 298 298 299 300 300 302 304 305 305 305 306 308 310 310 310 310 309 307 305 304 303 302 301 301 300 299 298 297 297 297 297 298 298 299 300 299 298 298 297 296 296 296 295
Wind_Speed
11 16 17 15 13 12 9 11 21 23 17 12 11 11 17 18 13 13 14 15 19 20 21 20 17 17 15 12 11 11 11 10 9 8 8 8 7 6 6 7 8 8 9 9 10 8 7 8 8 11 10 10 11 9 8 10 9 8 8 7 5 6 7 5 7 9 8 6 4 3 5 5 4 4 3 4 4 5 8 9 9 7 6 8 10
9 12 13 13 13 14 20 28 25 16 10 10 8 8 11 11 9 11 13 16 16 15 20 23 20 17 16 13 12 12 11 11 9 7 7 8 8 7 6 5 6 9 9 10 10 8 7 7 8 11 9 8 9 8 9 11 10 8 9 8 6 6 5 4 5 6 6 5 4 3 3 3 3 4 5 4 3 4 7 9 10 9 8 7 7
9 10 11 11 13 19 27 30 23 16 11 11 11 10 10 12 11 10 13 21 19 11 15 23 23 17 13 15 17 15 13 12 10 8 8 9 8 8 8 6 5 7 8 9 9 8 7 7 10 12 9 8 8 8 9 10 10 9 10 10 9 7 5 6 7 5 5 6 4 1 1 1 3 4 4 4 4 4 6 8 9 10 10 7 6
8 11 8 12 19 17 19 24 23 19 16 14 14 13 10 12 13 12 15 21 19 14 14 17 21 18 18 20 18 15 14 12 11 9 7 8 9 9 8 7 7 7 8 8 8 7 7 7 9 11 10 9 9 9 10 10 10 10 10 10 10 8 5 4 6 6 7 7 4 1 1 0 2 2 2 4 4 5 7 7 7 9 10 10 9
4 9 11 13 12 12 16 22 24 21 19 17 16 17 15 15 16 16 16 15 15 19 20 18 18 20 19 19 17 15 13 12 12 9 6 8 9 9 8 8 9 7 8 8 7 7 7 6 6 8 8 9 9 10 11 10 9 9 8 10 11 9 5 4 5 6 9 10 4 1 1 1 1 4 4 3 3 4 7 7 8 9 9 11 11
9 13 13 8 7 11 16 22 25 22 21 20 20 21 21 20 20 18 16 14 15 19 21 16 14 17 17 16 16 15 13 13 12 8 8 9 9 9 9 8 8 8 8 9 8 8 7 6 5 5 5 6 7 8 10 10 9 8 7 7 8 8 8 8 10 8 10 10 6 3 1 1 3 7 5 2 3 5 10 10 10 11 10 12 13
14 14 12 9 8 10 13 16 19 20 21 21 23 24 25 24 23 19 16 17 18 18 19 17 15 15 14 13 14 15 15 14 11 10 11 10 9 8 7 7 8 8 8 7 8 8 8 6 5 4 3 4 5 5 7 7 7 8 9 8 7 9 14 15 13 9 8 9 7 5 1 1 6 8 3 2 3 6 13 16 14 14 14 15 15
14 11 10 10 9 9 12 13 13 17 19 20 22 24 25 24 23 21 20 20 21 19 19 19 16 15 13 13 15 16 16 14 11 11 11 10 8 6 6 8 8 8 8 7 8 8 6 5 3 2 1 2 3 5 6 6 6 8 10 10 10 12 15 16 14 10 8 8 7 5 2 5 8 7 5 6 4 4 8 12 13 13 14 14 13
12 9 9 10 9 10 15 15 13 16 19 22 24 25 26 26 26 25 24 24 22 20 19 18 17 15 14 14 16 15 15 14 12 11 10 10 8 7 8 9 7 7 8 6 7 7 6 5 5 3 2 3 1 5 8 7 7 9 10 10 11 11 9 10 13 11 9 9 8 7 5 7 8 6 7 9 5 4 5 5 8 11 11 12 13
10 9 10 11 12 14 17 17 16 17 21 25 26 27 27 26 26 27 25 24 22 20 20 19 18 16 14 15 16 16 14 14 14 11 10 9 7 7 7 7 6 6 7 5 6 8 6 6 7 5 5 6 6 8 8 6 5 7 9 10 10 10 8 8 9 9 9 9 8 9 8 7 7 4 7 9 5 4 7 6 10 10 8 10 13
10 9 9 12 15 19 21 19 18 20 24 26 26 28 29 26 24 25 24 23 21 20 22 21 19 18 16 15 16 15 14 14 13 11 10 9 8 7 6 6 7 7 6 5 7 8 7 7 8 6 5 6 7 8 7 5 6 7 9 10 9 10 10 9 8 8 11 11 9 9 9 9 9 8 10 12 7 5 9 7 11 13 9 9 12
14 11 11 12 13 17 20 17 17 19 21 24 26 28 30 30 29 28 26 25 24 23 24 22 20 20 17 15 15 15 14 13 13 11 9 9 8 7 7 7 7 6 5 5 6 6 6 7 7 7 7 7 7 7 6 7 7 7 9 9 10 10 10 9 9 9 11 12 12 12 12 12 13 13 14 15 12 12 14 9 12 14 9 9 12
14 13 12 12 10 13 17 17 16 16 18 22 28 29 31 33 35 34 31 29 27 24 24 23 22 21 18 16 16 15 13 12 12 11 9 9 8 7 7 6 6 6 6 6 6 5 6 7 7 8 8 8 8 6 7 8 7 8 9 9 10 11 10 10 11 11 9 10 11 11 13 13 11 9 9 11 14 15 15 11 14 16 12 11 13
10 10 10 8 9 13 18 20 20 21 23 25 28 29 28 28 31 32 30 29 27 25 23 22 22 21 20 19 18 16 14 13 13 11 9 9 9 7 7 7 7 7 7 6 6 5 7 7 8 9 8 8 8 8 9 10 10 11 12 12 13 13 13 12 11 10 9 9 10 10 11 11 8 7 7 7 9 9 10 13 14 14 14 14 14
7 7 9 8 10 15 19 22 24 25 26 25 23 23 21 20 22 25 26 26 27 26 24 22 21 20 19 19 17 16 15 14 13 12 10 10 9 7 7 8 9 9 8 7 6 7 8 7 7 8 8 9 9 9 10 12 13 14 14 14 15 14 14 13 12 11 11 11 11 12 13 11 7 5 6 6 5 4 11 18 13 7 8 8 9
8 7 11 11 11 15 17 19 21 23 22 20 19 19 19 18 19 22 23 24 26 26 24 23 22 20 19 18 16 15 14 13 14 14 12 11 10 9 9 9 10 10 9 7 7 7 7 7 8 8 8 8 8 9 10 11 13 13 13 14 14 14 14 13 13 13 12 11 11 11 12 11 8 7 7 9 10 10 14 15 8 6 4 5 6
11 9 11 11 10 13 15 14 16 19 18 17 16 18 20 18 16 19 22 21 23 24 23 22 22 20 18 17 16 15 14 13 15 15 13 12 11 10 11 11 11 10 10 8 7 7 7 8 8 8 8 8 8 9 10 11 12 12 12 13 13 14 15 14 14 14 12 11 12 12 12 11 10 10 10 11 13 12 11 8 5 5 7 4 3
11 10 9 9 9 9 11 13 16 15 12 14 15 15 17 16 13 16 20 20 20 22 22 21 21 19 17 17 17 16 14 14 15 16 14 13 13 12 12 12 11 10 10 9 8 8 8 8 9 9 8 8 8 9 9 10 11 11 11 12 13 14 14 14 14 13 12 13 13 14 14 13 12 12 12 12 13 11 7 8 12 13 14 10 7
7 7 5 6 6 4 7 14 17 14 11 11 14 12 12 13 11 12 15 16 18 19 19 19 18 17 16 16 17 15 14 15 16 16 15 14 14 13 12 11 10 10 10 10 9 9 8 8 9 9 8 8 8 9 9 9 10 11 12 12 12 13 14 14 14 13 13 14 15 15 15 14 13 12 11 9 10 9 7 8 12 13 15 14 14
5 4 2 4 7 10 16 20 21 22 19 14 14 12 12 14 13 13 12 13 14 15 16 16 15 15 15 15 15 14 14 16 16 15 15 14 14 14 12 11 10 9 9 10 9 9 8 8 8 8 8 8 8 8 8 9 10 10 11 12 12 13 14 14 14 13 14 14 14 13 12 12 12 11 10 7 8 10 9 9 8 10 11 11 14
4 7 7 7 12 18 23 23 20 21 19 15 14 12 12 13 12 13 12 11 11 10 11 12 12 13 13 13 14 14 14 15 15 15 15 14 15 14 13 11 10 9 9 9 9 8 8 8 8 7 7 7 7 7 8 9 9 10 11 12 12 12 13 13 14 13 13 13 12 11 10 10 9 9 8 7 8 7 6 5 5 7 8 7 10
4 9 12 10 11 15 18 18 17 18 16 14 13 11 11 12 10 10 10 9 9 8 10 11 11 11 12 12 13 13 14 15 16 16 15 15 15 14 13 13 11 10 10 9 8 8 8 8 8 8 7 7 7 7 7 8 9 10 11 11 12 13 13 14 13 12 12 12 11 10 9 8 7 5 4 6 7 3 3 5 7 9 9 6 5
4 4 8 9 10 13 15 16 16 15 14 13 12 11 11 11 9 9 9 9 9 8 9 10 10 11 12 13 13 13 14 16 17 16 15 15 15 14 13 13 11 9 10 10 9 8 8 8 8 8 7 7 7 7 7 7 9 10 10 9 12 14 13 12 12 11 11 10 10 9 7 6 6 3 3 5 4 2 4 7 8 8 7 5 4
5 6 9 9 11 13 12 13 14 14 14 13 11 11 11 10 9 10 9 9 9 9 9 10 11 12 12 12 12 12 13 15 16 16 15 14 13 13 12 11 11 10 10 10 10 9 8 8 9 8 8 8 8 7 7 8 9 9 8 9 11 13 12 11 11 12 11 10 9 8 7 6 5 4 4 4 2 4 4 5 4 3 3 3 1
9 10 10 11 11 11 10 11 14 14 12 11 10 10 10 9 8 9 9 9 9 8 9 10 11 11 11 12 12 12 13 15 14 14 14 12 12 12 11 11 11 11 10 10 10 10 9 9 9 9 9 9 8 8 7 8 9 8 8 9 10 11 11 10 10 11 11 10 9 8 7 6 4 3 3 2 2 3 4 4 2 1 4 7 5
12 12 11 10 11 11 9 10 12 13 11 10 9 8 7 8 8 8 8 9 9 9 10 11 11 11 11 12 13 13 13 13 13 13 13 12 11 11 12 12 12 11 11 10 10 11 10 10 10 9 10 10 9 9 9 9 10 9 9 9 10 10 10 9 9 10 9 9 7 6 6 6 4 3 2 2 2 1 3 4 5 6 3 6 5
12 11 11 10 12 13 12 11 13 14 12 11 11 10 10 8 5 6 8 11 11 11 12 13 13 13 13 13 13 13 12 11 10 11 12 10 9 9 10 11 11 11 12 11 10 11 11 11 11 10 10 11 11 11 10 11 10 10 11 10 10 10 9 8 8 8 8 8 6 5 5 4 3 2 2 3 3 2 4 5 6 6 4 1 2
12 12 12 12 12 12 14 16 16 15 14 14 14 15 14 9 5 3 3 8 11 13 14 14 15 15 14 14 13 12 11 11 10 10 11 10 8 8 9 10 10 11 12 12 11 11 11 11 12 12 12 12 13 13 13 13 12 11 11 10 10 11 9 9 9 8 8 9 8 7 6 4 3 2 1 2 3 4 4 4 5 7 7 6 6
15 15 15 15 12 9 11 16 16 16 16 15 14 15 15 9 3 6 6 5 5 8 10 12 14 13 12 12 12 10 9 10 10 9 9 9 8 8 9 10 10 10 11 12 12 11 12 12 12 13 13 14 15 15 15 15 15 14 13 12 12 12 11 11 10 7 9 11 10 9 6 4 4 4 3 4 5 6 6 5 5 6 6 6 8
16 16 15 15 15 14 14 16 16 15 15 14 13 13 12 12 10 5 3 5 7 6 5 7 9 10 9 9 9 8 8 8 8 7 7 7 7 8 9 10 10 10 10 11 11 12 13 13 14 14 14 16 16 17 17 17 17 17 16 15 14 13 13 14 12 9 10 11 11 10 8 6 5 6 6 8 9 10 11 11 10 10 9 8 7
15 15 15 16 16 17 19 21 21 20 17 13 12 13 10 9 12 11 7 6 7 7 6 5 4 6 8 8 7 7 7 6 5 5 5 6 6 7 8 7 8 8 9 10 11 12 13 13 14 15 15 16 17 17 17 17 18 18 17 17 16 14 14 16 15 11 10 12 12 11 10 8 7 8 10 11 13 13 13 14 14 14 14 13 11
14 14 15 15 15 16 18 19 20 21 22 21 18 16 14 11 9 10 10 9 10 8 5 2 2 4 7 7 7 6 5 5 6 6 6 6 7 8 9 9 9 9 9 9 10 12 13 13 14 15 16 15 16 17 18 17 19 20 19 19 18 17 15 16 17 12 10 12 12 11 10 11 10 11 13 14 14 13 11 11 12 13 14 15 15
14 14 14 14 15 16 18 19 20 20 20 22 23 20 18 18 16 11 8 10 11 10 8 7 6 7 6 5 6 6 4 2 3 3 3 4 5 7 9 10 10 10 11 11 11 12 14 15 17 17 14 9 7 12 16 19 21 22 22 21 20 18 18 19 20 16 13 13 13 12 12 11 9 11 13 13 13 14 12 10 9 10 12 14 14
13 13 13 14 15 17 19 19 20 20 20 21 23 24 23 22 23 21 14 10 12 13 13 14 13 12 11 9 8 6 5 4 2 1 1 3 6 7 9 11 11 12 14 14 13 14 16 17 16 14 12 9 8 11 15 18 21 23 24 23 21 17 17 19 20 19 17 15 15 14 14 13 11 13 14 13 14 16 13 10 9 9 10 11 11
11 11 12 14 15 16 18 19 19 19 19 19 21 22 22 22 23 25 23 17 15 15 16 18 18 17 17 15 13 10 7 4 2 1 2 5 7 8 9 10 11 12 14 13 13 15 18 19 17 14 14 13 14 17 19 19 21 24 26 25 22 17 14 15 17 17 17 18 18 17 16 15 14 14 14 15 16 15 12 10 9 7 7 8 9
10 12 12 12 13 13 14 16 17 18 18 19 21 21 20 19 20 21 23 21 18 17 17 18 18 18 18 17 17 16 14 12 9 5 3 4 6 7 7 8 9 10 11 12 12 14 17 18 19 19 18 15 14 19 24 25 24 26 27 26 23 18 14 14 15 16 18 19 19 19 17 15 16 17 16 16 14 11 10 9 10 10 9 7 7
11 12 13 12 10 10 12 14 16 18 18 17 18 19 18 17 17 17 18 18 17 16 16 17 16 17 17 16 16 15 15 15 14 13 12 10 7 5 5 6 8 9 10 12 13 14 16 18 20 22 22 20 18 19 24 28 28 28 29 29 26 23 20 18 17 18 19 18 18 18 17 16 16 17 16 16 14 12 10 11 14 13 9 7 7
12 11 10 10 8 8 9 11 12 14 14 13 13 15 14 14 14 14 13 12 13 14 14 15 14 14 14 14 14 14 14 13 14 14 15 15 14 11 9 8 8 9 11 14 15 16 17 18 20 22 24 24 23 20 22 26 27 28 30 31 28 27 25 23 22 22 20 20 20 20 18 17 16 16 17 17 16 15 13 14 15 12 8 6 7
11 9 7 7 7 7 8 9 8 9 10 9 9 10 10 10 11 11 10 9 11 12 13 13 13 13 14 14 13 13 13 12 12 13 13 14 14 14 14 13 12 12 12 14 16 18 19 20 21 23 25 26 26 26 25 26 27 28 29 31 30 27 25 24 24 23 21 21 22 21 20 19 17 16 18 19 19 17 14 14 14 11 9 9 7
11 9 7 7 7 8 8 7 6 8 8 7 7 7 7 7 8 8 9 10 12 13 13 13 13 13 14 14 13 12 13 13 13 14 14 14 14 15 16 16 16 16 15 16 16 16 17 19 20 21 24 26 27 29 29 29 30 31 31 32 31 27 24 23 23 23 22 22 23 20 19 19 18 18 18 19 20 17 13 14 14 11 11 11 8
10 9 8 7 7 7 7 6 6 6 6 6 7 7 7 8 8 8 9 11 12 12 12 12 12 12 12 12 12 13 14 15 15 16 17 17 17 17 17 17 17 17 18 19 19 18 18 18 18 19 22 24 26 29 29 29 31 33 32 32 30 26 22 19 18 19 20 22 22 20 18 17 17 19 19 19 18 14 11 14 14 10 12 14 11
8 8 8 6 5 7 6 5 5 6 6 7 8 7 8 8 8 8 9 10 11 11 11 11 11 11 12 13 13 14 15 16 17 17 18 20 19 19 19 19 19 20 21 22 22 21 21 21 20 19 20 21 24 27 27 27 29 31 30 28 28 26 21 16 17 18 16 16 15 15 15 14 15 18 19 18 16 13 11 12 11 10 13 14 10
6 7 7 5 4 5 4 3 4 5 6 7 7 7 8 8 8 7 9 10 10 10 11 11 12 13 14 14 14 15 16 17 17 17 19 20 20 20 21 21 21 22 22 23 23 23 23 22 22 22 22 22 21 23 27 28 28 28 27 27 27 24 19 19 23 20 14 12 13 14 16 16 17 18 17 15 15 13 11 9 8 7 8 8 5
5 6 6 4 3 3 3 3 3 3 3 4 4 4 5 6 6 6 7 8 9 9 10 11 12 13 14 14 15 15 16 17 17 18 20 21 21 21 21 22 22 22 22 22 23 23 23 23 22 23 24 24 22 22 25 29 29 28 27 27 25 22 20 22 21 16 14 18 19 18 18 18 18 18 17 15 13 12 10 8 7 6 5 4 3
4 6 5 5 3 3 2 3 3 2 2 2 2 2 3 4 4 5 6 7 8 10 10 11 12 13 14 14 15 16 16 16 16 17 18 20 21 21 21 22 22 22 22 23 23 23 24 23 23 23 23 24 25 25 26 28 28 28 28 28 26 25 25 24 19 17 20 23 22 20 21 19 17 16 16 14 12 11 9 7 6 5 5 4 4
4 5 5 5 2 2 3 3 2 1 1 1 1 2 4 5 5 6 9 10 11 12 13 13 14 15 16 16 16 16 17 17 18 17 17 18 19 20 21 22 22 22 23 23 23 24 24 23 23 23 22 20 18 18 22 27 29 29 29 29 29 28 27 26 24 23 24 25 24 25 25 23 18 16 15 13 11 10 9 7 7 7 6 5 4
4 5 4 4 2 2 3 2 1 1 2 3 5 5 7 8 9 9 10 11 12 13 14 15 16 17 17 17 18 18 18 18 18 19 19 19 18 18 20 21 21 22 22 22 23 23 23 24 24 22 18 15 12 9 12 19 26 29 30 31 32 29 28 31 30 26 26 27 29 30 27 24 20 16 13 12 11 10 10 9 9 8 7 6 5
3 4 4 3 1 2 1 1 2 3 5 6 7 7 9 10 10 11 11 12 13 14 14 15 16 16 16 16 16 17 17 17 17 18 20 20 18 17 18 19 21 21 19 18 19 21 22 22 21 17 11 10 10 11 13 16 21 27 29 32 35 35 35 35 32 30 31 33 32 30 26 23 20 17 14 13 12 12 12 10 9 9 7 5 3
3 2 3 2 0 1 2 3 4 5 6 6 7 8 9 10 10 12 13 13 14 14 14 14 14 14 14 14 14 15 15 16 17 18 19 20 20 20 19 20 24 25 25 25 24 23 22 20 13 8 6 5 5 9 14 16 20 25 27 26 27 30 34 37 36 36 38 37 33 30 27 24 21 19 17 15 14 14 12 9 9 9 7 4 4
4 3 3 1 1 2 3 3 5 5 6 7 8 9 10 10 12 13 13 14 14 14 14 13 12 12 13 13 14 15 15 16 17 18 19 20 21 21 20 22 25 27 28 30 28 25 23 18 11 5 3 3 3 7 12 16 20 25 29 27 22 22 29 37 41 42 41 37 32 29 26 24 22 20 18 16 15 15 13 11 9 9 7 6 7
5 4 3 1 2 3 3 4 5 6 7 8 9 9 11 12 13 13 14 14 14 13 13 13 12 13 14 14 15 15 16 16 16 17 18 19 20 20 20 21 23 25 27 29 29 25 22 19 14 8 4 4 5 6 11 18 23 29 35 35 29 26 30 38 42 40 38 34 30 27 23 22 21 19 18 17 17 16 14 12 10 9 7 5 5
Wind_Direction
175 168 167 168 164 154 141 91 73 64 73 123 147 132 132 139 159 159 146 139 128 127 131 128 126 132 145 158 158 151 138 131 129 118 113 111 114 125 146 160 160 157 149 153 174 188 187 188 174 149 163 194 183 178 196 192 187 187 178 166 156 132 123 126 120 124 125 112 109 102 96 103 114 118 101 101 103 96 105 104 97 97 94 101 110
177 160 159 166 156 122 85 74 76 82 97 135 126 71 74 90 115 132 139 145 134 132 141 142 144 156 173 172 140 124 125 129 123 113 110 103 102 107 113 129 143 149 155 152 156 175 182 175 168 153 161 188 169 165 193 188 182 183 174 167 161 139 133 148 150 142 133 131 136 111 94 97 101 106 98 96 110 113 117 116 119 121 104 90 91
176 152 160 151 108 89 89 93 104 122 136 136 111 78 69 84 103 110 130 147 145 141 153 152 152 154 146 130 119 109 103 108 110 110 112 104 98 97 97 100 112 128 141 145 149 172 181 161 163 158 150 168 168 168 186 184 180 179 170 164 156 153 174 176 165 171 159 144 145 132 143 123 76 72 85 93 105 128 135 130 128 127 120 115 104
164 151 138 89 84 92 104 108 111 120 128 128 123 129 128 120 128 134 135 138 133 118 112 117 118 109 101 105 110 106 98 100 102 98 102 105 98 91 87 88 89 96 112 130 145 163 174 163 167 163 149 162 174 173 182 185 184 184 177 169 159 154 177 190 168 188 195 167 148 120 130 76 67 84 120 115 130 139 124 114 113 118 119 119 118
107 112 89 78 99 108 106 111 113 120 130 136 139 140 133 127 132 133 125 114 108 108 100 93 100 102 100 103 108 114 115 114 110 104 107 105 98 92 86 85 84 81 93 109 124 142 158 155 163 174 169 172 177 177 179 182 185 189 184 171 163 153 157 222 216 195 198 188 174 138 101 359 130 151 157 128 151 146 117 107 97 98 106 109 110
76 88 93 100 114 102 110 122 123 130 142 146 145 139 129 129 135 132 123 113 110 112 107 105 113 113 113 117 124 126 120 115 114 113 109 99 94 91 83 84 87 83 86 91 97 111 123 115 119 150 168 168 169 179 178 177 182 185 191 174 159 156 160 205 225 200 190 194 207 242 288 318 149 150 161 118 105 99 89 88 82 80 91 99 99
86 99 117 126 119 113 122 124 125 136 147 147 144 139 133 133 137 138 137 132 125 119 112 114 121 119 121 123 122 116 108 109 109 100 96 94 96 94 90 91 91 89 91 90 90 99 107 98 97 118 140 140 133 155 166 176 188 178 190 190 167 169 173 187 206 196 183 191 204 225 307 50 151 148 149 127 109 72 65 66 66 68 76 83 88
104 120 127 124 125 121 109 104 117 133 143 150 145 137 137 140 142 145 148 141 133 128 120 121 127 125 122 116 111 112 113 115 112 102 99 101 96 86 93 97 90 88 91 90 88 90 98 94 96 126 189 188 160 155 145 157 185 173 179 185 170 173 175 174 179 182 190 193 189 190 109 118 150 148 134 134 128 94 75 69 72 77 80 84 91
118 127 113 112 116 107 102 108 121 131 144 156 150 144 145 148 149 148 149 145 140 138 131 129 132 128 125 120 115 118 120 119 118 110 104 105 93 69 77 86 83 83 86 88 90 87 82 81 87 80 21 358 108 144 133 132 158 158 157 164 161 163 163 157 162 172 190 194 179 159 127 123 130 124 142 153 156 140 116 91 103 100 94 101 104
127 120 114 117 114 107 110 122 137 147 158 160 152 149 147 147 149 148 148 148 144 142 137 134 135 132 129 125 121 121 121 118 116 113 110 110 101 84 82 87 90 89 87 79 79 83 70 67 81 74 41 29 50 91 106 110 130 137 138 140 140 143 139 143 158 162 164 172 173 155 145 140 125 119 167 181 207 152 126 137 145 132 121 135 130
121 112 118 123 122 123 129 144 162 168 169 164 155 149 147 147 149 147 148 148 146 147 142 139 140 137 133 129 125 123 121 120 120 120 120 117 112 106 99 99 96 92 92 77 65 73 70 71 80 75 69 63 65 77 86 100 116 118 121 124 126 132 134 136 144 143 134 137 147 150 152 162 166 177 178 181 202 155 135 148 144 136 136 145 140
129 133 135 135 136 136 140 159 180 180 173 166 159 155 153 156 156 151 149 149 150 152 146 142 143 141 138 134 129 125 125 128 129 128 126 124 121 115 106 104 102 101 106 95 78 77 83 86 85 81 82 79 81 87 87 94 108 116 118 118 120 124 127 130 127 123 122 128 141 152 154 159 171 182 184 190 196 160 145 149 139 138 133 123 127
136 146 148 147 151 151 152 167 185 191 186 172 165 164 162 164 164 158 155 155 154 151 145 144 146 145 146 144 138 137 135 132 132 132 131 129 125 121 121 121 120 119 113 102 99 98 97 97 91 90 91 84 85 93 96 98 107 121 117 112 118 122 122 122 121 123 128 133 139 147 151 151 154 159 167 185 187 164 152 147 137 140 138 136 143
138 148 144 145 158 161 161 167 180 192 192 179 169 169 169 169 166 158 157 157 152 146 144 144 148 152 154 153 151 149 141 133 136 139 134 130 129 129 131 129 127 124 118 108 106 104 99 96 90 91 94 94 93 92 99 101 101 108 107 103 110 114 111 110 112 118 116 109 107 104 112 118 113 94 82 116 156 162 144 126 121 137 151 156 156
151 152 145 161 173 168 165 171 183 191 190 182 174 173 170 167 164 158 156 156 150 147 147 147 152 156 156 155 155 151 143 138 141 142 134 129 134 133 128 128 126 121 117 113 106 98 95 97 98 98 100 104 102 97 101 103 102 106 107 106 110 111 111 110 108 107 97 91 93 91 93 93 92 85 57 72 116 124 111 112 120 152 162 152 140
164 167 163 175 177 171 172 178 188 193 188 182 177 173 168 162 161 160 158 155 151 149 150 152 154 153 153 154 153 149 145 140 140 141 136 133 136 134 130 131 130 127 122 117 112 106 105 107 109 111 111 111 110 106 105 106 107 110 110 110 113 114 114 110 105 103 96 91 95 97 96 85 75 82 67 57 72 91 102 109 134 169 130 110 115
166 169 163 167 171 174 177 183 200 202 188 176 173 170 168 163 158 160 158 151 149 151 153 155 153 151 152 152 150 147 143 141 140 141 139 137 139 138 135 135 135 134 128 123 121 117 114 116 115 116 115 109 107 109 108 109 110 110 109 110 112 115 113 109 107 106 101 100 103 101 97 86 77 79 73 60 66 89 103 82 70 98 76 63 135
154 152 147 155 171 179 180 195 214 210 182 166 167 166 166 164 154 155 156 149 147 152 153 154 152 149 150 148 145 144 143 145 145 144 144 145 145 141 136 136 135 133 132 130 129 122 116 118 118 118 118 113 112 116 116 116 117 115 113 112 112 115 113 111 112 111 104 101 99 98 96 92 91 85 79 72 66 75 85 46 41 60 55 52 107
128 135 140 152 167 184 194 211 214 199 177 159 158 157 155 156 145 140 148 149 148 150 149 149 147 144 147 146 144 144 147 149 148 149 153 154 151 143 137 140 141 137 138 138 135 128 123 122 122 122 122 119 118 120 121 122 124 121 119 118 119 121 120 117 115 111 105 102 101 101 101 99 98 92 86 82 72 70 77 58 49 57 55 60 101
130 134 155 169 178 185 193 207 201 183 179 162 146 146 141 140 140 138 144 148 149 149 141 135 136 139 140 142 145 147 148 150 153 155 157 156 154 148 144 149 149 145 144 143 140 139 135 130 128 127 127 126 124 125 128 129 129 128 127 128 129 127 126 123 119 115 110 109 107 105 105 103 100 96 94 91 80 73 76 77 67 70 64 57 89
146 164 182 187 181 176 177 183 173 157 157 146 134 142 145 141 142 147 155 153 143 140 129 122 125 131 136 141 146 149 150 153 156 157 156 154 154 153 154 155 155 154 152 149 151 151 144 138 137 137 136 136 135 133 133 133 133 136 135 135 135 132 129 127 125 123 118 115 111 104 99 100 103 104 103 107 105 91 95 113 102 94 87 67 86
233 185 172 165 161 154 146 141 131 124 125 125 129 141 149 150 144 140 147 141 123 121 123 126 126 128 137 145 148 152 154 155 156 156 157 156 155 158 161 159 159 163 161 158 162 162 155 151 148 145 143 142 142 140 139 140 140 139 138 139 140 134 130 131 128 123 119 118 116 113 106 103 112 114 93 114 135 147 147 131 106 95 93 73 68
224 165 134 129 125 119 110 108 114 119 117 118 128 134 138 146 145 134 132 130 129 127 128 133 135 135 141 145 150 156 157 156 157 157 158 159 158 160 164 162 160 165 167 168 171 167 164 162 154 149 150 149 149 148 146 145 142 141 143 142 140 137 134 136 132 124 123 123 119 118 115 111 114 98 50 85 111 32 58 97 94 89 89 74 36
125 90 94 101 97 92 90 95 100 103 105 110 119 125 127 133 136 134 134 138 140 138 139 142 141 143 148 150 154 160 162 161 161 161 161 160 161 163 165 166 166 169 175 178 175 171 171 170 160 156 158 156 156 156 154 152 150 151 150 138 136 139 140 141 140 135 134 132 127 124 120 115 105 84 65 68 37 345 25 83 105 120 135 151 201
108 98 95 95 93 85 79 87 93 93 99 107 111 119 123 123 128 133 139 151 152 149 155 155 147 147 155 161 166 170 170 167 166 167 165 161 164 167 169 173 175 176 181 180 173 173 178 175 169 167 166 164 166 165 162 162 160 161 157 145 143 147 148 153 151 144 143 141 140 139 133 130 120 103 102 62 12 320 342 24 55 96 157 171 184
98 99 97 95 97 94 84 87 96 98 101 103 106 114 117 121 133 139 145 160 167 165 162 155 148 149 157 167 174 176 173 170 170 171 169 164 165 168 172 179 180 177 180 180 176 180 186 183 178 178 175 172 174 176 175 174 172 170 167 160 158 160 161 160 148 140 144 144 143 146 141 142 143 138 171 305 351 346 332 343 351 8 70 156 176
90 95 98 97 100 105 105 100 94 93 92 89 84 75 66 74 108 142 159 170 176 171 159 151 149 154 165 172 174 174 172 169 170 174 175 173 169 169 177 185 186 183 181 183 186 188 190 190 188 189 188 182 181 185 186 182 178 178 177 173 169 168 167 159 151 149 151 146 144 150 148 153 162 159 207 270 290 281 289 296 302 324 348 306 267
71 74 78 79 86 99 106 101 92 84 79 76 79 78 69 52 15 356 156 164 167 163 155 152 154 158 167 170 168 170 170 168 174 179 179 179 178 180 187 192 194 191 185 187 194 196 196 197 198 198 199 196 191 192 193 190 187 185 183 180 175 173 172 165 163 164 159 160 166 161 146 149 177 185 204 230 242 252 261 271 277 285 292 296 296
68 63 61 59 58 70 93 100 101 99 91 83 86 94 97 100 61 355 2 38 94 137 143 144 147 150 157 160 158 161 164 166 173 180 181 185 188 190 193 200 205 202 195 192 195 202 203 205 210 208 205 205 201 199 200 196 193 191 188 186 183 181 181 175 171 171 168 172 179 172 162 175 202 222 250 249 250 253 250 248 250 262 268 271 281
70 64 59 54 49 46 54 64 73 84 95 107 116 114 113 123 123 95 32 29 42 57 77 101 123 132 138 144 146 149 156 164 172 181 190 193 197 200 202 208 211 206 203 202 205 211 211 210 217 218 214 211 206 205 207 202 196 194 190 189 190 188 186 181 177 181 183 184 190 194 196 202 213 237 252 249 251 254 251 250 247 246 247 246 256
72 66 61 56 51 45 43 44 43 45 50 64 91 100 98 115 126 119 107 85 69 61 51 59 114 129 123 126 132 136 144 158 171 184 195 193 196 206 209 212 216 214 212 213 215 222 223 219 220 222 222 219 212 209 211 205 200 198 193 191 192 189 183 174 166 168 179 183 188 197 206 218 240 263 261 250 252 256 252 250 246 243 245 244 246
72 68 63 58 54 48 44 41 39 38 35 32 40 55 55 55 86 111 113 100 94 105 109 92 102 102 100 112 122 122 130 151 166 179 193 195 198 207 209 210 220 228 227 223 222 227 231 232 232 231 231 231 222 215 215 211 205 201 196 195 195 193 192 183 175 178 187 191 200 211 222 237 254 262 253 244 247 253 254 253 246 239 240 241 242
62 61 58 55 52 47 41 39 37 35 32 26 23 27 30 31 38 57 98 108 97 94 89 68 63 66 59 73 100 96 76 99 148 168 195 218 224 225 224 221 225 231 233 231 230 230 231 233 235 234 239 251 231 207 211 216 212 205 201 199 197 198 203 200 197 204 207 208 217 222 223 232 240 239 238 239 246 253 254 255 248 236 235 236 237
61 57 53 47 45 41 37 36 34 31 30 27 21 18 20 25 28 26 36 74 82 68 55 48 50 50 39 41 66 70 44 30 17 23 342 277 265 252 246 244 240 238 236 233 232 233 232 232 233 234 240 253 234 204 207 214 213 209 205 201 197 201 210 213 215 223 223 218 220 221 217 216 216 222 228 230 238 246 243 239 242 238 233 233 234
58 57 55 50 46 41 35 30 27 26 27 28 25 21 20 23 25 20 20 37 61 59 46 37 34 32 29 31 37 38 36 25 341 272 215 239 244 238 239 241 235 230 232 232 232 236 237 234 234 236 238 238 228 214 213 217 216 213 210 204 202 205 216 225 229 230 225 222 223 221 217 214 211 216 221 218 222 228 223 220 224 218 213 217 220
60 53 50 49 51 52 46 38 34 33 32 30 29 29 26 22 22 22 20 25 38 43 37 30 24 19 18 20 22 21 19 10 356 341 289 255 244 236 240 243 239 236 237 235 228 233 242 243 238 238 239 238 230 218 217 222 224 220 217 214 215 218 223 230 231 224 219 223 224 217 213 214 205 200 205 208 205 201 200 193 179 174 183 191 198
88 75 64 56 58 61 56 50 46 42 38 34 30 32 32 24 18 19 20 21 26 30 28 23 18 12 9 9 10 9 6 0 353 346 343 341 328 292 271 260 252 247 247 244 235 232 240 243 241 241 242 241 237 227 222 225 227 227 225 223 225 231 235 235 234 228 224 224 219 208 208 211 197 188 202 212 199 184 181 174 164 166 178 185 190
108 106 94 84 85 82 67 58 53 47 40 33 28 29 31 30 23 13 9 17 24 23 19 15 10 4 359 358 359 357 351 344 338 334 336 340 339 332 320 303 283 264 254 256 256 251 248 248 248 247 245 241 237 231 227 227 229 230 230 230 234 241 244 243 238 232 226 217 203 193 196 203 199 200 215 216 199 184 177 172 167 164 172 188 192
102 109 111 108 109 96 70 54 47 45 38 26 25 23 18 26 28 11 2 16 24 15 8 3 358 353 348 346 345 341 334 327 321 320 321 322 321 319 315 311 306 293 274 263 260 255 251 252 253 251 247 243 237 231 227 226 227 230 233 238 241 241 242 242 233 221 212 203 193 186 189 195 195 201 209 204 193 186 178 172 173 171 181 206 210
85 85 91 100 99 84 69 57 44 40 30 17 21 19 7 14 18 5 7 19 15 5 0 354 347 344 338 333 327 322 319 317 312 310 309 306 304 302 300 298 297 294 286 276 269 262 253 249 247 244 244 246 244 238 233 230 232 236 238 241 239 235 236 237 224 205 193 189 186 180 178 181 182 187 195 193 187 183 175 170 176 178 177 186 191
79 68 63 76 83 71 60 56 44 32 20 18 23 19 13 16 12 5 12 15 3 355 353 346 338 333 326 321 318 314 312 309 304 301 299 296 293 291 288 286 285 283 281 278 275 273 267 260 251 241 236 239 242 240 236 235 238 241 242 238 232 228 235 235 215 194 183 181 182 177 169 168 172 176 183 185 180 177 170 166 170 167 151 149 157
90 74 54 53 76 70 53 46 39 23 14 15 17 18 19 17 11 7 6 359 349 345 342 335 330 326 321 319 316 312 309 305 300 296 294 290 287 283 281 280 279 277 276 276 274 271 267 263 257 246 237 233 231 230 231 234 237 238 239 236 226 223 229 217 183 166 160 163 174 182 180 177 175 175 179 181 178 174 168 161 160 155 148 146 148
97 83 54 38 72 74 54 50 47 28 19 17 15 20 19 7 358 357 351 343 339 340 336 331 328 323 320 318 314 311 308 305 301 299 296 292 288 283 279 275 274 273 271 270 270 267 263 259 255 252 249 244 235 229 230 233 234 232 230 228 222 219 218 197 172 158 155 165 178 189 190 188 185 181 180 180 179 179 177 171 170 169 169 174 173
85 76 49 24 52 72 61 66 63 41 34 31 24 22 7 350 345 344 336 331 331 331 327 323 320 315 313 313 310 307 305 302 301 301 300 297 294 290 285 280 275 273 271 269 268 265 261 257 252 248 247 247 244 237 230 229 229 227 221 218 213 201 189 183 176 167 170 179 184 188 190 190 187 183 181 181 182 184 186 189 193 197 203 205 179
75 71 41 8 27 78 78 72 68 67 74 61 34 18 336 324 329 327 321 319 316 313 311 309 306 304 303 302 300 300 300 299 299 299 297 298 299 296 292 287 281 276 272 270 268 265 263 259 253 246 243 245 245 240 231 227 226 223 217 210 200 188 182 183 181 177 183 188 189 190 190 190 187 181 177 177 176 176 179 185 185 181 172 152 136
65 62 30 357 5 90 89 78 73 94 150 186 355 326 301 310 326 325 321 320 313 310 311 310 306 304 303 302 300 299 298 299 300 299 295 293 294 295 294 291 286 282 278 275 272 269 266 264 262 255 246 243 242 234 225 221 218 214 211 203 192 185 184 184 180 180 188 193 190 187 186 185 184 180 175 171 167 164 163 161 156 150 140 138 155
59 52 15 342 2 69 74 79 58 306 296 328 348 336 323 334 342 330 321 319 317 317 318 314 308 305 304 303 301 299 300 300 298 297 294 289 285 287 291 292 290 285 281 278 278 279 276 271 270 268 259 251 250 236 223 219 210 203 201 198 192 187 183 181 181 185 191 188 181 177 178 176 175 173 168 162 159 154 149 146 143 141 140 152 172
50 40 352 320 13 78 57 316 332 346 348 353 353 344 337 340 338 330 327 327 326 326 322 313 307 305 303 303 302 302 303 301 296 294 296 295 293 291 290 291 293 295 298 299 299 303 303 291 277 273 272 259 240 222 217 219 211 203 198 195 193 190 185 184 184 184 182 178 171 167 167 167 167 165 158 153 152 148 143 141 142 149 162 179 171
23 6 314 296 49 51 345 331 350 2 2 358 349 338 334 334 332 331 333 331 327 323 317 310 308 305 303 304 304 303 303 301 299 298 297 296 298 300 299 295 293 294 302 308 305 303 309 312 305 290 280 260 218 199 204 212 211 204 197 192 189 186 184 184 183 178 172 166 161 161 162 161 161 161 156 152 152 149 147 150 156 161 169 172 147
3 325 281 256 52 1 347 356 360 359 356 348 341 335 334 335 334 334 334 331 325 318 310 307 308 307 306 307 305 301 300 300 299 299 297 295 296 298 298 297 296 295 299 303 300 291 288 296 310 322 296 262 233 206 205 215 220 210 199 190 185 185 183 178 174 170 165 158 155 156 159 158 159 161 161 161 161 157 157 163 166 162 154 143 136
345 315 303 17 33 358 356 360 350 348 349 344 339 336 336 337 338 339 339 333 324 316 309 306 305 307 310 311 307 302 301 300 297 296 297 297 297 297 294 293 297 300 301 304 304 295 281 273 271 273 286 299 294 255 219 217 220 213 201 189 181 184 183 174 166 160 155 151 150 152 156 160 161 163 167 170 167 165 164 165 161 156 156 151 142